TimeEDT,TemperatureF,Dew PointF,Humidity,Sea Level PressureIn,VisibilityMPH,Wind Direction,Wind SpeedMPH,Gust SpeedMPH,PrecipitationIn,Events,Conditions,WindDirDegrees,DateUTC
12:54 AM,59.0,55.9,90,30.05,9.0,Calm,Calm,-,N/A,,Overcast,0,2013-08-20 04:54:00
1:51 AM,57.2,55.4,94,30.06,2.0,Calm,Calm,-,N/A,,Partly Cloudy,0,2013-08-20 05:51:00
1:54 AM,57.0,55.0,93,30.05,2.0,Calm,Calm,-,N/A,,Partly Cloudy,0,2013-08-20 05:54:00
2:05 AM,55.4,55.4,100,30.06,1.2,Calm,Calm,-,N/A,,Clear,0,2013-08-20 06:05:00
2:25 AM,55.4,55.4,100,30.06,0.8,Calm,Calm,-,N/A,,Clear,0,2013-08-20 06:25:00
2:32 AM,55.4,53.6,94,30.06,2.5,Calm,Calm,-,N/A,,Clear,0,2013-08-20 06:32:00
2:46 AM,55.4,53.6,94,30.06,3.0,Calm,Calm,-,N/A,,Clear,0,2013-08-20 06:46:00
2:54 AM,55.0,53.1,93,30.05,3.0,Calm,Calm,-,N/A,,Clear,0,2013-08-20 06:54:00
3:40 AM,53.6,51.8,94,30.06,1.0,Calm,Calm,-,N/A,,Clear,0,2013-08-20 07:40:00
3:48 AM,53.6,51.8,94,30.06,3.0,Calm,Calm,-,N/A,,Clear,0,2013-08-20 07:48:00
3:54 AM,53.1,51.1,93,30.05,4.0,Calm,Calm,-,N/A,,Clear,0,2013-08-20 07:54:00
4:12 AM,53.6,51.8,94,30.06,1.8,Calm,Calm,-,N/A,,Clear,0,2013-08-20 08:12:00
4:32 AM,51.8,51.8,100,30.06,3.0,Calm,Calm,-,N/A,,Clear,0,2013-08-20 08:32:00
4:41 AM,51.8,51.8,100,30.07,1.8,Calm,Calm,-,N/A,,Clear,0,2013-08-20 08:41:00
4:48 AM,51.8,51.8,100,30.07,0.8,Calm,Calm,-,N/A,,Mist,0,2013-08-20 08:48:00
4:54 AM,53.1,51.1,93,30.06,1.2,Calm,Calm,-,N/A,,Partly Cloudy,0,2013-08-20 08:54:00
5:01 AM,51.8,51.8,100,30.07,2.0,Calm,Calm,-,N/A,,Mostly Cloudy,0,2013-08-20 09:01:00
5:15 AM,51.8,50.0,94,30.08,4.0,Calm,Calm,-,N/A,,Mostly Cloudy,0,2013-08-20 09:15:00
5:22 AM,51.8,50.0,94,30.08,5.0,Calm,Calm,-,N/A,,Scattered Clouds,0,2013-08-20 09:22:00
5:43 AM,51.8,50.0,94,30.08,1.5,Calm,Calm,-,N/A,,Partly Cloudy,0,2013-08-20 09:43:00
5:46 AM,51.8,50.0,94,30.08,0.8,Calm,Calm,-,N/A,,Mist,0,2013-08-20 09:46:00
5:54 AM,52.0,50.0,93,30.08,0.5,Calm,Calm,-,N/A,Fog,Fog,0,2013-08-20 09:54:00
6:07 AM,51.8,50.0,94,30.09,0.2,Calm,Calm,-,N/A,Fog,Fog,0,2013-08-20 10:07:00
6:14 AM,51.8,48.2,88,30.09,1.0,Calm,Calm,-,N/A,,Mist,0,2013-08-20 10:14:00
6:20 AM,50.0,48.2,94,30.09,3.0,Calm,Calm,-,N/A,,Mostly Cloudy,0,2013-08-20 10:20:00
6:24 AM,50.0,48.2,94,30.09,2.0,Calm,Calm,-,N/A,,Scattered Clouds,0,2013-08-20 10:24:00
6:31 AM,51.8,50.0,94,30.10,1.5,Calm,Calm,-,0.01,,Scattered Clouds,0,2013-08-20 10:31:00
6:36 AM,51.8,50.0,94,30.10,3.0,Calm,Calm,-,0.01,,Partly Cloudy,0,2013-08-20 10:36:00
6:54 AM,52.0,51.1,97,30.10,3.0,Calm,Calm,-,0.01,,Clear,0,2013-08-20 10:54:00
7:54 AM,59.0,55.9,90,30.11,5.0,Calm,Calm,-,N/A,,Clear,0,2013-08-20 11:54:00
8:54 AM,66.9,60.1,79,30.13,10.0,Calm,Calm,-,N/A,,Clear,0,2013-08-20 12:54:00
9:54 AM,70.0,59.0,68,30.13,10.0,Calm,Calm,-,N/A,,Clear,0,2013-08-20 13:54:00
10:54 AM,72.0,60.1,66,30.13,10.0,SSE,3.5,-,N/A,,Clear,160,2013-08-20 14:54:00
11:54 AM,75.0,60.1,60,30.12,10.0,Calm,Calm,-,N/A,,Clear,0,2013-08-20 15:54:00
12:54 PM,78.1,61.0,56,30.11,10.0,NW,3.5,-,N/A,,Clear,320,2013-08-20 16:54:00
1:54 PM,78.1,61.0,56,30.10,10.0,WNW,3.5,-,N/A,,Clear,290,2013-08-20 17:54:00
2:54 PM,78.1,60.1,54,30.10,10.0,Variable,6.9,-,N/A,,Scattered Clouds,0,2013-08-20 18:54:00
3:54 PM,80.1,57.0,45,30.09,10.0,West,10.4,-,N/A,,Clear,280,2013-08-20 19:54:00
4:54 PM,79.0,59.0,50,30.09,10.0,West,5.8,-,N/A,,Clear,270,2013-08-20 20:54:00
5:54 PM,78.1,61.0,56,30.10,10.0,SW,4.6,-,N/A,,Clear,230,2013-08-20 21:54:00
6:54 PM,75.0,60.1,60,30.09,10.0,Calm,Calm,-,N/A,,Clear,0,2013-08-20 22:54:00
7:54 PM,66.0,62.1,87,30.11,7.0,SSW,3.5,-,N/A,,Clear,200,2013-08-20 23:54:00
8:54 PM,64.9,60.1,84,30.12,10.0,Calm,Calm,-,N/A,,Clear,0,2013-08-21 00:54:00
9:54 PM,63.0,59.0,87,30.13,10.0,Calm,Calm,-,N/A,,Clear,0,2013-08-21 01:54:00
10:54 PM,62.1,57.9,86,30.13,8.0,Calm,Calm,-,N/A,,Clear,0,2013-08-21 02:54:00
11:54 PM,60.1,57.9,93,30.14,5.0,Calm,Calm,-,N/A,,Clear,0,2013-08-21 03:54:00